Location: Asheville, NC
(35.6000°N, 82.5500°W)
Time: 04:50:36
(UTC-04:00)

Vanguard 1 Rocket - Pass Details

Date: 12 February 2018
Orbit: 652 x 4225 km, 34.3° (Epoch: 24 May)

Event Time Altitude Azimuth Distance (km) Brightness Sun altitude
Rises 00:18:36 0° 229° (SW) 7,325 11.9 -67.3°
Enters shadow 00:19:56 - 228° (SW) 7,117 11.8 -67.4°
Exits shadow 01:01:49 32° 85° (E) 5,356 11.1 -67.7°
Drops below altitude 10° 01:09:59 10° 77° (ENE) 6,450 11.8 -67.4°
Sets 01:14:12 0° 74° (ENE) 7,121 12.1 -67.1°
